Regional Weather Roundup
Issued by NWS

Home | Current Version | Previous Version | Graphics & Text | Print | Product List | Glossary On
Versions: 1 2 3 4 5 6 7 8 9 10 11 12 13 14 15 16 17 18 19 20 21 22 23 24 25 26 27
000
ASUS45 KPSR 231210
RWRAZ

ARIZONA HOURLY REGIONAL WEATHER ROUNDUP
NATIONAL WEATHER SERVICE PHOENIX AZ
500 AM MST MON JAN 23 2017

NOTE: FAIR INDICATES FEW OR NO CLOUDS BELOW 12,000 FEET WITH NO
SIGNIFICANT WEATHER AND/OR OBSTRUCTIONS TO VISIBILITY.

AZZ001>003-036-231300-
NORTHWEST ARIZONA

CITY           SKY/WX    TMP DP  RH WIND       PRES   REMARKS
BULLHEAD CITY  CLOUDY    57  43  58 S16G26    29.77F
KINGMAN        PTCLDY    48  37  65 S24G36    29.77F
6HR MIN TEMP:  44; 6HR MAX TEMP:  51;

$$

AZZ004>008-015-016-018-231300-
NORTH CENTRAL ARIZONA

CITY           SKY/WX    TMP DP  RH WIND       PRES   REMARKS
GRAND CANYON   LGT SNOW  32  31  96 S22G33    29.80F FOG     WCI  19
6HR MIN TEMP:  29; 6HR MAX TEMP:  32; 6HR PCP: TRACE;

WILLIAMS       MIX PCPN  32  28  86 S20G28    29.85F WCI  20
PRESCOTT       MOCLDY    38  34  85 S18G25    29.88F WCI  28
6HR MIN TEMP:  36; 6HR MAX TEMP:  41; 6HR PCP:  0.01;

FLAGSTAFF      LGT SNOW  29  28  96 SW16G25   29.88F FOG     WCI  17
6HR MIN TEMP:  27; 6HR MAX TEMP:  29; 6HR PCP:  0.08;

PAYSON         CLOUDY    37  32  81 CALM      30.00F
PAGE           PTCLDY    41  28  60 S9G18     29.76F
6HR MIN TEMP:  37; 6HR MAX TEMP:  41;

$$

AZZ009>014-017-231300-
NORTHEAST ARIZONA

CITY           SKY/WX    TMP DP  RH WIND       PRES   REMARKS
WINSLOW        CLEAR     41  29  62 S21G28    29.89F
6HR MIN TEMP:  33; 6HR MAX TEMP:  42;

SAINT JOHNS    CLEAR     36  25  64 VRB3      29.93F
6HR MIN TEMP:  31; 6HR MAX TEMP:  40;

SHOW LOW       MOCLDY    34  19  55 S23       29.95S WCI  22
$$

AZZ023-231300-
GREATER PHOENIX AREA

CITY           SKY/WX    TMP DP  RH WIND       PRES   REMARKS
PHOENIX        MOCLDY    53  42  66 E6        29.91F
6HR MIN TEMP:  52; 6HR MAX TEMP:  55; 6HR PCP: TRACE;

BUCKEYE        CLOUDY    52  41  66 E8        29.91F
LUKE AFB       PTCLDY    50  45  81 N3        29.90F
6HR MIN TEMP:  50; 6HR MAX TEMP:  53; 6HR PCP: TRACE;

DEER VALLEY    CLOUDY    52  41  66 E6        29.91F
6HR MIN TEMP:  52; 6HR MAX TEMP:  55; 6HR PCP: TRACE;

SCOTTSDALE     CLOUDY    52  41  66 CALM      29.93F
6HR MIN TEMP:  52; 6HR MAX TEMP:  58; 6HR PCP: TRACE;

MESA-GATEWAY   CLOUDY    52  41  66 SE10      29.95F
$$

AZZ027-028-231300-
SOUTHWEST MARICOPA COUNTY AND PINAL COUNTY

CITY           SKY/WX    TMP DP  RH WIND       PRES   REMARKS
CASA GRANDE    CLOUDY    49  40  71 CALM      29.95S
6HR MIN TEMP:  47; 6HR MAX TEMP:  51; 6HR PCP: TRACE;

GILA BEND      FAIR      50  44  78 NE3       29.89F
6HR MIN TEMP:  50; 6HR MAX TEMP:  56; 6HR PCP: TRACE;

$$

AZZ503-504-507>509-231300-
SOUTHEAST ARIZONA

CITY           SKY/WX    TMP DP  RH WIND       PRES   REMARKS
TUCSON         MOCLDY    48  29  47 E7        30.00F
6HR MIN TEMP:  45; 6HR MAX TEMP:  50;

DAVIS-MONTHAN  MOCLDY    45  31  57 SE9       29.99F
6HR MIN TEMP:  41; 6HR MAX TEMP:  46;

NOGALES        CLEAR     40  26  57 S7        30.03F
6HR MIN TEMP:  36; 6HR MAX TEMP:  45;

SIERRA VISTA   CLEAR     45  22  41 SE3       30.04F
6HR MIN TEMP:  40; 6HR MAX TEMP:  46;

DOUGLAS        CLEAR     39  33  79 E9        30.06F WCI  33
6HR MIN TEMP:  37; 6HR MAX TEMP:  45;

SAFFORD        MOCLDY    42  32  67 E9        30.00F
6HR MIN TEMP:  35; 6HR MAX TEMP:  43;

$$

AZZ020-021-025-026-031-231300-
SOUTHWEST ARIZONA

CITY           SKY/WX    TMP DP  RH WIND       PRES   REMARKS
YUMA           CLEAR     56  50  80 S13       29.88F
6HR MIN TEMP:  56; 6HR MAX TEMP:  60;

$$

CAZ031-033-041-043-047-048-061-231300-
SOUTHERN CALIFORNIA

CITY           SKY/WX    TMP DP  RH WIND       PRES   REMARKS
DOWNTOWN L.A.  MOCLDY    52  48  86 CALM      29.88
6HR MIN TEMP:  51; 6HR MAX TEMP:  56; 6HR PCP:  0.51;

L.A. AIRPORT   PTCLDY    54  47  77 W16G22    29.88F
6HR MIN TEMP:  54; 6HR MAX TEMP:  57; 6HR PCP:  0.11;

SAN DIEGO      LGT RAIN  58  51  78 W9        29.96F
6HR MIN TEMP:  58; 6HR MAX TEMP:  60; 6HR PCP: TRACE;

BURBANK        LGT RAIN  49  43  80 CALM      29.87F
6HR MIN TEMP:  49; 6HR MAX TEMP:  53; 6HR PCP:  0.11;

ONTARIO        PTCLDY    49  47  93 SW9       29.87F
6HR MIN TEMP:  49; 6HR MAX TEMP:  52; 6HR PCP:  0.08;

RIVERSIDE      MOCLDY    49  47  93 W8        29.89S
6HR MIN TEMP:  49; 6HR MAX TEMP:  53; 6HR PCP:  0.13;

PALM SPRINGS   LGT RAIN  52  32  46 NE14      29.84F
6HR MIN TEMP:  49; 6HR MAX TEMP:  52; 6HR PCP:  0.17;

EL CENTRO NAS  CLEAR     57  46  66 S5        29.88F
6HR MIN TEMP:  53; 6HR MAX TEMP:  61;

IMPERIAL       CLEAR     59  48  67 VRB5      29.85F
6HR MIN TEMP:  54; 6HR MAX TEMP:  61; 6HR PCP: TRACE;

BLYTHE         MOCLDY    55  49  80 S18       29.84F
6HR MIN TEMP:  55; 6HR MAX TEMP:  58;

NEEDLES        PTCLDY    55  43  63 S6        29.79F
6HR MIN TEMP:  55; 6HR MAX TEMP:  60; 6HR PCP: TRACE;

$$

NVZ020-UTZ003-231300-
SOUTHERN NEVADA-UTAH

CITY           SKY/WX    TMP DP  RH WIND       PRES   REMARKS
LAS VEGAS      LGT RAIN  49  42  77 S13G22    29.68R
6HR MIN TEMP:  49; 6HR MAX TEMP:  54; 6HR PCP:  0.06;

SALT LAKE CITY CLOUDY    37  32  81 SE16      29.53F WCI  28
6HR MIN TEMP:  36; 6HR MAX TEMP:  39;

$$

NMZ009-TXZ055-231300-
NEW MEXICO-WEST TEXAS

CITY           SKY/WX    TMP DP  RH WIND       PRES   REMARKS
ALBUQUERQUE    CLOUDY    33  30  88 SE10      29.97F WCI  25
6HR MIN TEMP:  32; 6HR MAX TEMP:  40;

EL PASO        CLEAR     40  28  62 S9        30.05F WCI  34
6HR MIN TEMP:  40; 6HR MAX TEMP:  48;

$$


........................KEY........................
SKY/WX - SKY CONDITION/WEATHER
TMP    - TEMPERATURE IN FAHRENHEIT
DP     - DEW POINT IN FAHRENHEIT
RH     - RELATIVE HUMIDITY IN PERCENT
WIND   - DIRECTION AND SPEED IN MILES PER HOUR (MPH)
VRB    - VARIABLE WIND DIRECTION
PRES   - MEAN SEA LEVEL PRESSURE IN INCHES OF MERCURY
         F - FALLING PRESSURE   R - RISING PRESSURE
         S - STEADY PRESSURE
VSB    - VISIBILITY IN MILES
HX     - HEAT INDEX IN FAHRENHEIT
WCI    - WIND CHILL INDEX IN FAHRENHEIT
TC     - TEMPERATURE IN CELSIUS WHICH IS ALSO KNOWN AS
         TEMPERATURE IN CENTIGRADE
AFB    - AIR FORCE BASE
         LUKE AFB IS LUKE AIR FORCE BASE
         DAVIS-MONTHAN IS DAVIS-MONTHAN AIR FORCE BASE
NAS    - NAVAL AIR STATION
         EL CENTRO NAS IS EL CENTRO NAVAL AIR STATION
N/A    - NOT AVAILABLE





USA.gov is the U.S. government's official web portal to all federal, state and local government web resources and services.